Dinard-Pleurtuit-Saint-Malo Airport

Jump to: basic info | weather | frequencies | runways | comments

Related pages: nearby airports | nearby navaids | notams | map

Basic information (top)

Codes: DNR LFRD
Location: lon 48.587700, lat -2.079960, elev 219 ft / 67 m msl
Status: medium_airport
Scheduled airline service: yes
Links: Wikipedia Mobile

Weather (top)

Current conditions (rec'd 2015/03/30 04:00Z):

LFRD 300400Z AUTO 31012KT 9999 OVC003 10/09 Q1011

Airport forecast (rec'd 2015/03/29 00:15Z):

TAF LFRD 292300Z 3000/3024 28017G27KT 8000 RA BKN010 
      TEMPO 3000/3007 3000 RA BKN005 
      BECMG 3006/3008 30010KT 9999 NSW BKN020 
      BECMG 3012/3015 25007KT 5000 RA BKN015 
      TEMPO 3015/3019 3000 RA BKN007 
      BECMG 3018/3020 25017G27KT 9999 NSW BKN015 
      TEMPO 3020/3024 5000 RA BKN007

Frequencies (top)

Verify before use: may be inaccurate or out of date.

ATIS: 124.575 MHz (DINARD ATIS)
TWR: 120.15 MHz (DINARD TWR)

Runways (top)

12/30: 4,708 x 148 ft (1,435 x 45 m) — paved — not lighted — threshold 30 displaced 476 ft (145 m)

17/35: 7,218 x 148 ft (2,200 x 45 m) — paved — lighted

Latest comments (top)

No comments yet for Dinard-Pleurtuit-Saint-Malo Airport

More... (top)

See also NOTAMs and nearby airports and navaids, or visit the Dinard-Pleurtuit-Saint-Malo Airport page at the main OurAirports website..